Location: Belfast
(54.5830°N, 5.9330°W)
Time: 13:02:08
(UTC+01:00)

ISS - Pass Details

Date: 20 May 2018
Orbit: 402 x 407 km, 51.6° (Epoch: 20 May)

Event Time Altitude Azimuth Distance (km) Brightness Sun altitude
Rises 03:45:39 0° 275° (W) 2,321 -0.3 -9.2°
Reaches altitude 10° 03:47:52 10° 264° (W) 1,459 -1.4 -9.1°
Maximum altitude 03:50:48 31° 201° (SSW) 742 -3.0 -8.8°
Drops below altitude 10° 03:53:43 10° 137° (SE) 1,455 -1.1 -8.6°
Sets 03:55:55 0° 127° (SE) 2,312 0.0 -8.4°
